This is the latest recevied weather packets stored in our database for station/object KC4GS-13. If no packets are shown the sender has not sent any weather packets the latest 10 day(s).
| Time | Temp. | Humidity | Pressure | Rain* | Wind** | Luminosity | Snow |
|---|---|---|---|---|---|---|---|
| 1788544702 | 34.44° C | 56% | 1017.6 hPa | 0 mm | - | 719 W/m² | - |
| 1788544400 | 33.89° C | 59% | 1017.7 hPa | 0 mm | - | 800 W/m² | - |
| 1788544095 | 33.33° C | 60% | 1017.6 hPa | 0 mm | - | 798 W/m² | - |
| 1788543791 | 33.33° C | 61% | 1017.6 hPa | 0 mm | - | 788 W/m² | - |
| 1788543487 | 33.89° C | 60% | 1017.8 hPa | 0 mm | - | 160 W/m² | - |
| 1788543183 | 33.89° C | 60% | 1017.9 hPa | 0 mm | - | 679 W/m² | - |
| 1788542878 | 32.78° C | 61% | 1017.9 hPa | 0 mm | - | 774 W/m² | - |
| 1788542577 | 33.33° C | 62% | 1017.9 hPa | 0 mm | - | 416 W/m² | - |
| 1788542273 | 32.78° C | 62% | 1018 hPa | 0 mm | - | 448 W/m² | - |
| 1788541968 | 32.78° C | 62% | 1018.1 hPa | 0 mm | - | 632 W/m² | - |
| 1788541664 | 32.78° C | 63% | 1017.9 hPa | 0 mm | - | 87 W/m² | - |
| 1788541360 | 32.78° C | 64% | 1018.1 hPa | 0 mm | - | 95 W/m² | - |
| 1788541059 | 32.22° C | 65% | 1018.3 hPa | 0 mm | - | 104 W/m² | - |
| 1788540752 | 32.22° C | 66% | 1018.4 hPa | 0 mm | - | 199 W/m² | - |
| 1788540447 | 32.22° C | 66% | 1018.2 hPa | 0 mm | - | 89 W/m² | - |
| 1788540142 | 31.67° C | 67% | 1018.4 hPa | 0 mm | - | 154 W/m² | - |
| 1788539838 | 31.67° C | 68% | 1018.7 hPa | 0 mm | - | 112 W/m² | - |
| 1788539534 | 31.67° C | 67% | 1018.9 hPa | 0 mm | - | 120 W/m² | - |
| 1788539232 | 31.67° C | 67% | 1018.9 hPa | 0 mm | - | 113 W/m² | - |
| 1788538927 | 31.67° C | 68% | 1019 hPa | 0 mm | - | 124 W/m² | - |
| 1788538623 | 31.11° C | 71% | 1019 hPa | 0 mm | - | 140 W/m² | - |
| 1788538318 | 30.56° C | 72% | 1019.2 hPa | 0 mm | - | 103 W/m² | - |
| 1788538014 | 30.56° C | 72% | 1019.2 hPa | 0 mm | - | 145 W/m² | - |
| 1788537709 | 30.56° C | 72% | 1019.4 hPa | 0 mm | - | 174 W/m² | - |
| 1788537404 | 30.56° C | 73% | 1019.4 hPa | 0 mm | - | 106 W/m² | - |
* Rain latest hour (hover to see other rain measurements)
** Current wind speed in m/s (hover to see current wind gust speed)